Location: Zengebe
(1.4833°N, 32.5167°E)
Time: 22:08:20
(UTC+00:00)

Okean O Rocket - Pass Details

Date: 07 June 2020
Orbit: 622 x 646 km, 98.2° (Epoch: 10 July)

Event Time Altitude Azimuth Distance (km) Brightness Sun altitude
Rises 03:09:05 0° 20° (NNE) 2,889 5.7 -8.6°
Reaches altitude 10° 03:11:19 10° 25° (NNE) 1,984 4.9 -8.1°
Maximum altitude 03:15:31 52° 102° (ESE) 773 2.5 -7.1°
Drops below altitude 10° 03:19:43 10° 178° (S) 1,989 4.0 -6.1°
Sets 03:21:57 0° 183° (S) 2,897 4.7 -5.6°
